Location: Bazugues
(43.4465°N, 0.3432°E)
Time: 18:43:44
(UTC+00:00)

UNISAT 6 - Pass Details

Date: 18 May 2026
Orbit: 571 x 636 km, 97.8° (Epoch: 10 June)

Event Time Altitude Azimuth Distance (km) Brightness Sun altitude
Exits shadow 03:34:13 - 183° (S) 2,828 ? -9.5°
Reaches altitude 10° 03:36:19 10° 189° (S) 2,001 ? -9.2°
Maximum altitude 03:40:28 43° 261° (W) 879 ? -8.6°
Drops below altitude 10° 03:44:35 10° 334° (NNW) 1,984 ? -8.0°
Sets 03:46:51 0° 341° (NNW) 2,883 ? -7.6°
